Regional Weather Roundup
Issued by NWS

Home | Current Version | Previous Version | Graphics & Text | Print | Product List | Glossary On
Versions: 1 2 3 4 5 6 7 8 9 10 11 12 13 14 15 16 17 18 19 20 21 22 23 24 25 26 27 28 29 30 31 32 33 34 35 36 37 38 39 40 41 42 43 44 45 46 47 48 49 50
000
ASUS43 KTOP 241659
RWRKS

WEATHER ROUNDUP FOR KANSAS
NATIONAL WEATHER SERVICE GOODLAND KS
1200 PM CDT TUE MAY 24 2016

NOTE:  "FAIR" INDICATES FEW OR NO CLOUDS BELOW 12,000 FEET WITH NO
SIGNIFICANT WEATHER AND/OR OBSTRUCTIONS TO VISIBILITY.

KSZ001>006-013>018-027>032-041>047-241800-
NORTHWEST KANSAS

CITY           SKY/WX    TMP DP  RH WIND       PRES   REMARKS
GOODLAND       CLOUDY    67  55  65 SE20G30   29.93S
HAYS           CLOUDY    68  54  60 SE20      29.92S
HILL CITY      CLOUDY    69  58  67 E10       29.94S
RUSSELL        CLOUDY    69  58  67 SE22      29.90F
$$

KSZ061>065-074>080-084>089-241800-
SOUTHWEST KANSAS

CITY           SKY/WX    TMP DP  RH WIND       PRES   REMARKS
DODGE CITY     CLOUDY    70  65  84 E22G30    29.89S
ELKHART          N/A     75  56  51 W3          N/A
GARDEN CITY    MOSUNNY   75  65  70 E21G28    29.86F
GREAT BEND     MOSUNNY   75  54  46 SE26G33   29.91F
LIBERAL        SUNNY     81  61  50 S9        29.86F
$$

KSZ066>073-081>083-090>101-241800-
SOUTHEAST KANSAS

CITY           SKY/WX    TMP DP  RH WIND       PRES   REMARKS
CHANUTE        CLOUDY    69  63  81 E10       29.96R
COFFEYVILLE    CLOUDY    78  70  76 W6        29.95R
HUTCHINSON     CLOUDY    74  57  55 E17G23    29.92F
MEDICINE LODGE   N/A     73  66  78 E12       29.91F
NEWTON         MOSUNNY   72  57  60 E13G20    29.96F
PARSONS        CLOUDY    70  67  90 NE6       29.98R
WICHITA INTL   MOSUNNY   76  66  71 E13       29.92F
WICHITA JABRA  SUNNY     72  64  76 E10       29.93F
WINFIELD       PTSUNNY   77  70  79 E8        29.94S
$$

KSZ007>012-019>026-033>040-048>060-102>105-241800-
NORTHEAST KANSAS

CITY           SKY/WX    TMP DP  RH WIND       PRES   REMARKS
CONCORDIA      SUNNY     72  59  63 S15       29.90F
EMPORIA        MOSUNNY   73  61  65 NE13      29.95S
LAWRENCE       CLOUDY    72  62  71 N3        29.96R
MANHATTAN      CLOUDY    73  70  90 SE10G22   29.85F
OLATHE IND     CLOUDY    71  62  73 S8        29.97F
OLATHE EXE     CLOUDY    70  63  78 E7        29.95F
SALINA         PTSUNNY   76  60  57 SE18      29.90S
TOPEKA BILLARD CLOUDY    72  61  68 W8        29.94R
TOPEKA FORBES  CLOUDY    72  63  73 NW7       29.95R
$$




USA.gov is the U.S. government's official web portal to all federal, state and local government web resources and services.